Showing default

OPS 9381 (GGTS), 2207

Orbit data source: Space-Track

OPS 9381 (GGTS), 2207 is a payload satellite owned by USAF SSD (US) in GEO that was launched on Thu, 16 Jun 1966 UTC via a TITAN IIIC launch vehicle from the Air Force Eastern Test Range (AFETR). Payload-class satellites include a variety of spacecraft equipped with specific instruments for various scientific and technological missions. These include communications satellites like Starlink; space stations such as the ISS; scientific satellites like the Hubble; Earth observation satellites from companies like Planet Labs, Umbra, and HawkEye 360; GPS; miniature CubeSats for education and research; and military/defense satellites.

Not visible in the next 10 days
Identifier
2207, 1966-053A
Orbit
GEO
Country
Flag of USUS
Related business
Manufacturer
GE/MSVD
Mission
Non-operational spacecraft
Bus & Motor
GGTS, Unknown motor
Mass
47 kg wet, 47 kg dry
Launch date (UTC)
1966-06-16 (59 years ago)
Launch vehicle
TITAN IIIC
Launch site
Air Force Eastern Test Range (AFETR)
Object type
Payload
Rocket body
Debris
Shape & HBR
Unknown
Radar Cross Section
Medium (>0.1 m² and <1 m²)

Expand to show TLE details & history
Last TLE update: 1 day ago

TLE from 1 day ago
0 OPS 9381 (GGTS)
1 02207U 66053A   25294.12020787 -.00000057  00000-0  00000-0 0  9993
2 02207   8.2089  45.6465 0029978 225.5249 149.9182  1.08010085233380
Epoch: 2025-10-21T02:53Z
TLE epoch observation values (Epoch: 2025-10-21T02:53:05.959Z)
Latitude
2.20441°
Longitude
-12.00557°
Altitude
33,851.106 km
Speed
3.144 km/s
True Right ascension
04h 04m 19s
True Declination
2° 12' 07"
Sunlit
Object was in daylight at epoch
Visualization orbit readout
Latitude
Unknown
Longitude
Unknown
Altitude
Unknown
Speed
Unknown
Apparent Right ascension
Unknown
Apparent Declination
Unknown
Sunlit
N/A
Visualization observer readout
Local Sidereal Time
23:36:54
Azimuth
Unknown
Elevation
Unknown
Doppler factor
Unknown
Orbital elements
Apogee altitude
33,869.223 km
Perigee altitude
33,628.637 km
Semi-major axis
40,127.067 km
Eccentricity
0.003
Inclination
8.2089°
RAAN
45.6465°
Arg. of periapsis
225.5249°
True anomaly
150.08983°
Mean anomaly
149.9182°
Eccentric anomaly
150.00407°
Mean motion
0.27001 °/min
Orbital period
1,333.26 mins
BSTAR
0
Loading maneuver chart data...
Computing Atmospheric mass density...
Loading historical data...
Loading historical data...
Loading historical data...
Loading historical data...
Loading historical data...
Loading historical data...
Loading historical data...

Documentation

Showing up to 5 results
|